Location: Spruce Knob
(38.6995°N, 79.5330°W)
Time: 21:40:57
(UTC-04:00)

A-11 Canister half - Pass Details

Date: 05 February 2022
Orbit: 1513 x 1686 km, 47.2° (Epoch: 24 May)

Event Time Altitude Azimuth Distance (km) Brightness Sun altitude
Rises 16:00:45 0° 270° (W) 4,818 12.5 17.0°
Reaches altitude 10° 16:04:02 10° 275° (W) 3,809 12.0 16.4°
Maximum altitude 16:13:25 53° 351° (N) 1,850 9.5 15.0°
Drops below altitude 10° 16:22:30 10° 67° (ENE) 3,694 10.5 13.5°
Sets 16:25:39 0° 72° (ENE) 4,665 10.9 13.0°
